Погода в Тзанеен

ЮАР     23°49′47″S   30°09′57″E
темп.,
°C
ветер,
м/с
пор.,
м/с
влажн.,
%
обл.,
%
осадки,
мм/ч
давл.,
гПа
погр.,
м
27 ноября, сб
сб2723:00+15ю1392100 0.1 1025278
02:00+15ю129399 0.1 1024199
05:00+14юв1294100 0.2 1024266
08:00+15в2594100 0.5 1025525
11:00+16в1389100 0.4 1024634
14:00+18ююз1278100 0.6 1021644
17:00+18зюз017448 0.1 1021624
20:00+16з118594 0.1 102115
28 ноября, вс
вс2823:00+15з118852 0.0 102223
02:00+14з11896 0.0 102012
05:00+13зсз11915 0.0 102011
08:00+20св126728 0.0 1019726
11:00+27ссв23440 0.0 10161213
14:00+30ссв34335 0.0 10121741
17:00+29св34380 0.0 1010686
20:00+22з21600 0.0 101316
29 ноября, пн
пн2923:00+21з1163100 0.0 101413
02:00+20з1166100 0.0 101211
05:00+19зюз227287 0.0 101442
08:00+26в114881 0.0 1014463
11:00+31всв2236100 0.0 10131219
14:00+34св3429100 0.0 10091848
17:00+32св3434100 0.0 1008835
20:00+19юз71392100 6.0 1014385
30 ноября, вт
вт3023:00+21з2280100 2.7 101342
02:00+19юз128692 2.8 101329
05:00+20в1182100 0.0 101416
08:00+22юв117396 0.1 1015204
11:00+25ююв1159100 0.0 1014642
14:00+32ссв243545 0.0 10101365
17:00+28ююв0151100 0.0 100927
20:00+23з3766100 0.1 1014200
1 декабря, ср
ср123:00+22зюз1160100 0.0 101423
02:00+21з11643 0.0 101314
05:00+20юз116669 0.0 101411
08:00+25вюв24565 0.0 1016918
11:00+30в34400 0.0 10141529
14:00+32всв34320 0.0 10112164
17:00+32всв34300 0.0 10102065
20:00+25зюз11450 0.0 101211